Location: Arbon
(43.0005°N, 0.7472°E)
Time: 22:00:22
(UTC+00:00)

Explorer 7 - Pass Details

Date: 30 November 2020
Orbit: 484 x 678 km, 50.3° (Epoch: 25 January)

Event Time Altitude Azimuth Distance (km) Brightness Sun altitude
Rises 04:39:19 0° 291° (WNW) 2,841 - -26.5°
Reaches altitude 10° 04:41:53 10° 302° (WNW) 1,901 - -26.1°
Maximum altitude 04:45:45 30° 5° (N) 1,005 - -25.4°
Exits shadow 04:46:24 29° 23° (NNE) 1,033 8.3 -25.2°
Drops below altitude 10° 04:49:24 10° 68° (ENE) 1,792 10.2 -24.7°
Sets 04:51:45 0° 79° (E) 2,650 11.5 -24.3°
